Regional Weather Roundup
Issued by NWS

Home | Current Version | Previous Version | Graphics & Text | Print | Product List | Glossary On
Versions: 1 2 3 4 5 6 7 8 9 10 11 12 13 14 15 16 17 18 19 20 21 22 23 24 25 26 27 28 29 30 31 32 33 34 35 36 37 38 39 40 41 42 43 44 45 46 47 48 49 50
000
ASUS43 KMPX 211910
RWRMN
WEATHER ROUNDUP FOR MINNESOTA
NATIONAL WEATHER SERVICE TWIN CITIES/CHANHASSEN MN
200 PM CDT SAT APR 21 2018


NOTE: "FAIR" INDICATES FEW OR NO CLOUDS BELOW 12,000 FEET WITH NO
SIGNIFICANT WEATHER AND/OR OBSTRUCTIONS TO VISIBILITY. N/A MEANS
CURRENT SKY AND/OR WEATHER CONDITIONS ARE NOT AVAILABLE.

MNZ060>063-068>070-212000-
   Twin Cities Metro

CITY           SKY/WX    TMP DP  RH WIND       PRES   REMARKS
TWIN CITIES    FAIR      57  19  22 NW5       30.37F
ST PAUL        FAIR      57  20  23 NE6       30.38F
CRYSTAL        FAIR      56  17  21 CALM      30.36F
BLAINE         MOSUNNY   55  19  24 N5        30.38S
LAKEVILLE      FAIR      52  36  54 S6        30.38S
EDEN PRAIRIE   FAIR      55  15  20 CALM      30.36F
SOUTH ST PAUL  FAIR      56  19  24 CALM      30.37S
LAKE ELMO      FAIR      54  21  28 CALM      30.39S
$$
MNZ001>005-007-008-013>017-022>024-027-028-212000-
   Northwest Minnesota

CITY           SKY/WX    TMP DP  RH WIND       PRES   REMARKS
BEMIDJI        FAIR      57  33  39 SW7       30.31F
HALLOCK        FAIR      59  48  67 S18       30.26F
ROSEAU         FAIR      59  43  55 SW12G17   30.29F
WARROAD        FAIR      59  43  55 S6        30.29F
THIEF RVR FALL FAIR      56  40  55 S12G17    30.31F
CROOKSTON      PTSUNNY   55  43  62 SW15      30.31F
FOSSTON        FAIR      57  36  44 SW10      30.32F
DETROIT LAKES  FAIR      55  30  38 S8        30.33F
MOORHEAD       FAIR      57  39  51 S10       30.32F
PARK RAPIDS    FAIR      56  32  40 S6        30.32F
MAHNOMEN       FAIR      57  34  41 SW10      30.31F
$$
MNZ006-009>011-018-025>026-212000-
   North Central Minnesota

CITY           SKY/WX    TMP DP  RH WIND       PRES   REMARKS
BAUDETTE       FAIR      58  27  30 S8G17     30.30F
FLAG ISLAND    FAIR      48  28  46 SE10      30.29F
INTL FALLS     FAIR      58  24  27 S8        30.31F
WASKISH        CLOUDY    54  30  40 W7        30.32F
BIG FORK       FAIR      57  27  30 SW7       30.33S
LONGVILLE      FAIR      57  27  30 W6        30.34F
GRAND RAPIDS   FAIR      54  26  34 W8        30.35F
CRANE LAKE     FAIR      57  21  24 CALM      30.33F
ORR            FAIR      59  16  18 SE5       30.30F
COOK           FAIR      57  27  30 SE6       30.33F
WALKER         FAIR      54  30  40 E5        30.33F
$$
MNZ012-019>021-037-212000-
   Northeast Minnesota

CITY           SKY/WX    TMP DP  RH WIND       PRES   REMARKS
DULUTH         FAIR      54  22  28 SW12      30.35F
ELY            FAIR      57  19  23 W6        30.32F
HIBBING        FAIR      55  21  26 VRB3      30.33F
EVELETH        FAIR      56  21  25 SW6       30.34F
DULUTH HARBOR  FAIR      54  25  32 NE7       30.37F
TWO HARBORS    FAIR      61  30  31 S8        30.34F
SILVER BAY     FAIR      57  18  21 S7        30.34F
GRAND MARAIS     N/A     37  33  85 S5        30.37F
G MARAIS ARPRT FAIR      52  19  28 S7        30.35F
$$
MNZ029>031-032-039>041-046>048-054>057-064-212000-
   West Central Minnesota

CITY           SKY/WX    TMP DP  RH WIND       PRES   REMARKS
FERGUS FALLS   FAIR      57  36  44 S8        30.31S
WHEATON        SUNNY     55  37  50 S12       30.35F
MORRIS         SUNNY     55  37  50 S15       30.35S
ALEXANDRIA     FAIR      57  31  37 S8        30.35F
ELBOW LAKE     FAIR      56  37  47 SW10      30.34F
WADENA         FAIR      55  30  38 SE6       30.33F
GLENWOOD       FAIR      55  32  41 SE10      30.36S
APPLETON       CLOUDY    54  28  37 S12       30.37S
BENSON         MOSUNNY   55  36  47 SW9       30.38S
ORTONVILLE     SUNNY     55  39  54 S8        30.35F
MADISON        CLOUDY    52  37  58 S9        30.37S
WILLMAR        FAIR      54  36  50 SE5       30.40S
$$
MNZ033>034-036-042>043-049>051-058-059-212000-
   Central Minnesota

CITY           SKY/WX    TMP DP  RH WIND       PRES   REMARKS
ST CLOUD       FAIR      53  29  39 SE5       30.36F
SAUK CENTRE    FAIR      54  32  43 CALM      30.36S
PAYNESVILLE    FAIR      55  33  42 S5        30.37F
AITKIN         FAIR      54  19  26 SE9       30.35F
PINE RIVER     FAIR      52  30  43 CALM      30.37F
BRAINERD       FAIR      56  27  32 MISG      30.35F
STAPLES        FAIR      55  27  33 S5        30.34F
LONG PRAIRIE   FAIR      54  32  43 E3        30.35F
LITTLE FALLS   FAIR      52  21  30 E5        30.36F
LITCHFIELD     FAIR      54  34  47 SE6       30.38F
BUFFALO        FAIR      53  25  33 CALM      30.39S
MAPLE LAKE     FAIR      54  32  43 CALM      30.38F
HUTCHINSON     FAIR      52  32  46 SE3       30.40R
$$
MNZ037-044-045-052-053-212000-
   East Central Minnesota

CITY           SKY/WX    TMP DP  RH WIND       PRES   REMARKS
PRINCETON      FAIR      57  25  28 CALM      30.37F
MORA           FAIR      52  23  32 S3        30.39F
CAMBRIDGE      FAIR      55  32  41 S3        30.38F
RUSH CITY      FAIR      54  22  28 SW5       30.38F
MOOSE LAKE     FAIR      55  27  33 W5        30.35S
HINCKLEY       FAIR      54  23  30 SE3       30.38S
CLOQUET        FAIR      55   9  15 SW7       30.35F
MCGREGOR       FAIR      55  21  26 CALM      30.36S
$$
MNZ071>073-080-081-089-090-097-098-212000-
   Southwest Minnesota

CITY           SKY/WX    TMP DP  RH WIND       PRES   REMARKS
MONTEVIDEO     SUNNY     55  36  47 SW5       30.38S
GRANITE FALLS  SUNNY     52  36  54 SE9       30.39F
CANBY          CLOUDY    49  36  61 E6        30.37F
REDWOOD FALLS  CLOUDY    50  32  50 S8        30.37F
OLIVIA         SUNNY     54  37  54 SE6       30.37F
PIPESTONE      CLOUDY   N/A N/A N/A SE6       30.33F
WINDOM         CLOUDY    45  25  45 NE6       30.36F
WORTHINGTON    CLOUDY    43  35  73 NE7       30.35F
JACKSON        CLOUDY    39  32  75 E5        30.36F
TRACY          CLOUDY    47  35  61 CALM      30.37F
SLAYTON        CLOUDY    42  31  66 E6        30.36F
$$
MNZ065>067-074>077-082>085-091>093-212000-
   South Central Minnesota

CITY           SKY/WX    TMP DP  RH WIND       PRES   REMARKS
MANKATO        PTSUNNY   51  34  52 CALM      30.39S
NEW ULM        PTSUNNY   48  23  37 E3        30.38F
ST JAMES       CLOUDY    43  30  61 CALM      30.39F
FAIRMONT       CLOUDY    39  31  72 E3        30.38
GLENCOE        FAIR      51  27  38 CALM      30.38S
OWATONNA       FAIR      52  36  54 S8        30.39R
WASECA         CLOUDY    50  34  53 SE3       30.40S
ALBERT LEA     CLOUDY    48  28  46 CALM      30.37F
$$
MNZ078>079-086>088-094>096-212000-
   Southeast Minnesota

CITY           SKY/WX    TMP DP  RH WIND       PRES   REMARKS
ROCHESTER      CLOUDY    47  35  63 S8        30.40R
RED WING       FAIR      57  23  26 S6        30.37F
STANTON        FAIR      54  34  45 SW5       30.37F
DODGE CENTER   PTSUNNY   46  36  66 S7        30.39S
WINONA         PTSUNNY   59  32  36 S5        30.37F
AUSTIN         CLOUDY    45  36  70 CALM      30.38F
PRESTON        CLOUDY    48  33  55 CALM      30.39F
$$
ABBREVIATIONS USED IN REMARKS
   TC - TEMPERATURES IN CELSIUS
  WCI - WIND CHILL INDEX
   HX - HEAT INDEX
  VSB - VISIBILITY
$$



USA.gov is the U.S. government's official web portal to all federal, state and local government web resources and services.